Regional Weather Roundup
Issued by NWS

Home | Current Version | Previous Version | Text Only | Print | Product List | Glossary Off
Versions: 1 2 3 4 5 6 7 8 9 10 11 12 13 14 15 16 17 18 19 20 21 22 23 24 25 26 27 28 29 30 31 32 33 34 35 36 37 38 39 40 41 42 43 44 45 46 47 48 49 50

000
ASUS43 KOAX 290610
RWRNE

WEATHER ROUNDUP FOR NEBRASKA
NATIONAL WEATHER SERVICE OMAHA NE
1200 AM CST THU JAN 29 2015

NOTES: SATELLITE DATA IS BEING USED TO AUGMENT CLOUD COVER ABOVE
       12000 FEET.
       "FAIR" INDICATES FEW OR NO CLOUDS BELOW 12,000 FEET WITH NO
       SIGNIFICANT WEATHER AND/OR OBSTRUCTIONS TO VISIBILITY.

  * THESE STATIONS DO NOT REPORT WEATHER SUCH AS RAIN...SNOW OR FOG.

NEZ001>004-019>022-054>056-290700-
NEBRASKA PANHANDLE

CITY           SKY/WX    TMP DP  RH WIND       PRES   REMARKS
SCOTTSBLUFF    CLOUDY    40  28  62 W12       30.30R WCI  33
6HR MIN TEMP:  36; 6HR MAX TEMP:  45;

ALLIANCE       CLEAR     30  26  85 N9        30.27R WCI  22
6HR MIN TEMP:  30; 6HR MAX TEMP:  45;

CHADRON        PTCLDY    29  26  89 N5        30.33R WCI  24
6HR MIN TEMP:  26; 6HR MAX TEMP:  49;

KIMBALL        CLOUDY    39  26  60 N14G21    30.28R WCI  31
SIDNEY         MOCLDY    36  28  73 N9        30.29R WCI  29
6HR MIN TEMP:  36; 6HR MAX TEMP:  45;

$$

NEZ057>060-069>072-079>082-290700-
SOUTHWEST NEBRASKA

CITY           SKY/WX    TMP DP  RH WIND       PRES   REMARKS
NORTH PLATTE   CLOUDY    38  30  73 N23G35    30.22R WCI  27
6HR MIN TEMP:  38; 6HR MAX TEMP:  56;

IMPERIAL       CLEAR     40  30  67 N21       30.22R WCI  30
6HR MIN TEMP:  40; 6HR MAX TEMP:  54;

LEXINGTON      CLOUDY    42  33  69 N32G40    30.17R
MCCOOK         CLEAR     44  32  62 NW21      30.18R
6HR MIN TEMP:  43; 6HR MAX TEMP:  60;

OGALLALA       PTCLDY    38  29  71 N22G28    30.25R WCI  27
$$

NEZ005>010-023>029-035>040-094-290700-
NORTH CENTRAL NEBRASKA

CITY           SKY/WX    TMP DP  RH WIND       PRES   REMARKS
VALENTINE      CLOUDY    37  27  67 NW21G35   30.23R WCI  26
6HR MIN TEMP:  36; 6HR MAX TEMP:  54;

AINSWORTH      CLOUDY    35  30  81 NW24G38   30.21R WCI  23
BROKEN BOW     CLOUDY    38  30  73 N36G43    30.17R WCI  25
6HR MIN TEMP:  38; 6HR MAX TEMP:  57;

O`NEILL        CLOUDY    35  32  88 NW25G38   30.16R WCI  23
ORD            CLOUDY    36  30  79 N26G40    30.14R WCI  24
6HR MIN TEMP:  36; 6HR MAX TEMP:  56; 6HR PCP: TRACE;

THEDFORD       CLOUDY    37  31  81 N26G36    30.25R WCI  24
$$

NEZ041-046>049-061>064-073>077-083>087-290700-
SOUTH CENTRAL NEBRASKA

CITY           SKY/WX    TMP DP  RH WIND       PRES   REMARKS
GRAND ISLAND   CLOUDY    41  32  70 NW31G45   30.10R
6HR MIN TEMP:  41; 6HR MAX TEMP:  59;

AURORA         CLOUDY    42  33  69 N32G43    30.07R
HASTINGS       MOCLDY    44  33  65 N32G40    30.08R
6HR MIN TEMP:  44; 6HR MAX TEMP:  58;

HEBRON         PTCLDY    50  32  51 N21G26    30.02R
HOLDREGE       CLEAR     44  32  63 N24G37    30.12R
KEARNEY *      CLOUDY    45  32  61 N26G39    30.12R
YORK           CLOUDY    43  34  70 N26G35    30.03R
$$

NEZ011>018-030>034-042>045-290700-
NORTHEAST NEBRASKA

CITY           SKY/WX    TMP DP  RH WIND       PRES   REMARKS
NORFOLK        CLOUDY    37  30  75 N35G51    30.05R WCI  24
6HR MIN TEMP:  37; 6HR MAX TEMP:  54;

ALBION         CLOUDY    37  29  75 N25G37    30.09R WCI  25
BLAIR          CLOUDY    42  37  81 NW32G40   29.95R
COLUMBUS *     CLOUDY    37  27  65 NW33G47   30.05R WCI  24
FREMONT        CLOUDY    39  34  81 NW29G40   30.03R WCI  27
TEKAMAH        CLOUDY    38  32  79 NW35G49   30.01R WCI  25
6HR MIN TEMP:  38; 6HR MAX TEMP:  49;

WAYNE          CLOUDY    35  32  88 NW24G37   30.05R WCI  23
$$

NEZ050>053-065>068-078-088>093-290700-
SOUTHEAST NEBRASKA

CITY           SKY/WX    TMP DP  RH WIND       PRES   REMARKS
LINCOLN        CLOUDY    44  35  70 N28G45    30.00R
6HR MIN TEMP:  44; 6HR MAX TEMP:  58;

OMAHA EPPLEY   CLOUDY    43  36  76 NW32G43   29.93R
6HR MIN TEMP:  37; 6HR MAX TEMP:  50;

BEATRICE       MOCLDY    46  35  64 N26G41    29.99R
FALLS CITY     PTCLDY    47  37  68 NW20G35   29.90R
6HR MIN TEMP:  47; 6HR MAX TEMP:  58;

NEBRASKA CITY  CLOUDY    46  34  63 N22G30    29.91R
PLATTSMOUTH    CLOUDY    44  36  73 NW25G35   29.92R
$$

NEZ044-045-051>053-067-290700-
OMAHA AREA

CITY           SKY/WX    TMP DP  RH WIND       PRES   REMARKS
OMAHA EPPLEY   CLOUDY    43  36  76 NW32G43   29.93R
6HR MIN TEMP:  37; 6HR MAX TEMP:  50;

BLAIR          CLOUDY    42  37  81 NW32G40   29.95R
FREMONT        CLOUDY    39  34  81 NW29G40   30.03R WCI  27
MILLARD        CLOUDY    43  37  79 NW26G37   29.96R
OFFUTT AFB     CLOUDY    44  37  77 NW28G38   29.93R
PLATTSMOUTH    CLOUDY    44  36  73 NW25G35   29.92R
WAHOO          CLOUDY    39  33  77 N35G46    29.99R WCI  27
$$



USA.gov is the U.S. government's official web portal to all federal, state and local government web resources and services.